Weather Roundup
Issued by NWS Springfield, MO

Home | Current Version | Previous Version | Text Only | Print | Product List | Glossary On
Versions: 1 2 3 4 5 6 7 8 9 10 11 12 13 14 15 16 17 18 19 20 21 22 23 24 25 26 27 28 29 30 31 32 33 34 35 36 37 38 39 40 41 42 43 44 45 46 47 48 49 50
000
NZUS99 KSGF 251907
HRRSGF

HOURLY WEATHER
NATIONAL WEATHER SERVICE SPRINGFIELD MO
200 PM CDT MON SEP 25 2017

......SGF CWA......

CITY           SKY/WX    TMP DP  RH WIND       PRES   REMARKS
SPRINGFIELD    MOSUNNY   84  63  49 SE13G22   29.95F
JOPLIN         MOSUNNY   85  66  53 SE10      29.93F
WEST PLAINS    MOSUNNY   87  60  40 S13       29.99F
ROLLA          SUNNY     87  63  44 VRB5      29.97F
OSAGE BEACH    SUNNY     86  65  49 S7        29.95F
BRANSON        MOSUNNY   84  63  48 SE8G18    29.98F

......SURROUNDING SGF CWA......

CITY           SKY/WX    TMP DP  RH WIND       PRES   REMARKS
CHANUTE        MOSUNNY   86  67  52 S16       29.91F
PARSONS        MOSUNNY   86  66  51 S10G18    29.91F
COFFEYVILLE    SUNNY     87  67  51 S9G21     29.89F HX  90
EMPORIA        PTSUNNY   87  65  47 S12G21    29.87F
GROVE OK       PTSUNNY   88  64  45 S8        29.93F
ROGERS AR      SUNNY     85  64  49 S7G17     29.95F
SILOAM SPRINGS MOSUNNY   86  62  44 S9G17     29.94F
HARRISON AR    MOSUNNY   86  62  44 E7G16     29.97F
NEAR YELLVILLE MOSUNNY   89  61  38 VRB7      29.94F

......KANSAS AND MISSOURI......

CITY           SKY/WX    TMP DP  RH WIND       PRES   REMARKS
KANSAS CTY INT MOSUNNY   83  68  60 S12       29.90F
DOWNTOWN KC    MOSUNNY   88  67  49 SE14G20   29.89F HX  91
COLUMBIA       SUNNY     86  65  49 S5        29.95F
SEDALIA        MOSUNNY   89  67  47 S9        29.94F HX  92
ST JOSEPH      SUNNY     90  67  46 S17       29.87F HX  93
ST LOUIS       MOSUNNY   88  64  44 VRB3      29.95F
SPIRIT OF STL  SUNNY     91  66  43 SW5       29.93F HX  93
KIRKSVILLE     PTSUNNY   86  65  49 S10       29.93F
WICHITA        TSTM      67  65  93 W17       29.91R FOG
TOPEKA         MOSUNNY   87  67  51 S14       29.87F HX  90
OLATHE         MOSUNNY   84  67  56 S12G21    29.91F

......TENNESSEE......

CITY           SKY/WX    TMP DP  RH WIND       PRES   REMARKS
MEMPHIS        MOSUNNY   86  64  47 E9        29.96F
NASHVILLE      MOSUNNY   89  64  43 E8        30.00F HX  90

......ARKANSAS.......

CITY           SKY/WX    TMP DP  RH WIND       PRES   REMARKS
FAYETTEVILLE   MOSUNNY   85  66  53 S13       29.94F
FT SMITH       MOSUNNY   88  62  41 S9        29.89F
LITTLE ROCK    PTSUNNY   88  67  49 S10       29.93F HX  91

......OKLAHOMA.......

CITY           SKY/WX    TMP DP  RH WIND       PRES   REMARKS
TULSA          PTSUNNY   87  64  46 S10G22    29.86F
PONCA CITY     PTSUNNY   87  63  44 S13       29.85F
MCALESTER      MOSUNNY   89  66  46 S8        29.90F HX  91
OKLAHOMA CITY  PTSUNNY   79  65  62 S14       29.88F

......IOWA............

CITY           SKY/WX    TMP DP  RH WIND       PRES   REMARKS
DES MOINES     LGT RAIN  85  67  54 E6        29.86F
QUAD CITIES    SUNNY     89  63  41 S9        29.91F HX  90

......ILLINOIS........

CITY           SKY/WX    TMP DP  RH WIND       PRES   REMARKS
QUINCY         MOSUNNY   86  63  45 SE7       29.93F
CHICAGO        MOSUNNY   90  55  30 VRB5      29.95F



USA.gov is the U.S. government's official web portal to all federal, state and local government web resources and services.